Location: Cruquius
(52.3348°N, 4.6319°E)
Time: 21:49:57
(UTC+00:00)

Cosmos 2242 Rocket - Pass Details

Date: 04 October 2021
Orbit: 618 x 651 km, 82.5° (Epoch: 23 October)

Event Time Altitude Azimuth Distance (km) Brightness Sun altitude
Rises 03:47:14 0° 155° (SSE) 2,959 7.1 -19.0°
Reaches altitude 10° 03:49:46 10° 143° (SE) 2,056 6.5 -18.6°
Maximum altitude 03:53:31 26° 87° (E) 1,298 6.0 -18.1°
Drops below altitude 10° 03:57:17 10° 32° (NNE) 2,070 6.9 -17.5°
Sets 03:59:50 0° 20° (NNE) 2,984 7.6 -17.2°
